Home   Weather   Cooperstown   Past weeks
Flag for USA

Past Weather in Cooperstown, New York, USA — Yesterday and Last 2 Weeks

Now
54 °F

Clear.


Feels Like: 50 °F
Forecast: 55 / 46 °F
Wind: 13 mph from East

Location: Griffiss Air Force Base / Rome

Current Time: Oct 21, 2019 at 11:47:51 pm

Latest Report: Oct 21, 2019 at 10:53 pm


Visibility: 10 mi

Pressure: 30.08 "Hg

Humidity: 80%

Dew Point: 48 °F

Location of CooperstownLocation

Past Weather in Cooperstown — Graph

°F

Cooperstown Temperature Yesterday

Maximum temperature yesterday: 56 °F (at 3:53 pm)
Minimum temperature yesterday: 37 °F (at 3:53 am)
Average temperature yesterday: 45 °F

High & Low Weather Summary for the Past Weeks

 TemperatureHumidityPressure
High71 °F (Oct 11, 3:53 pm)100% (Oct 7, 12:34 am)30.41 "Hg (Oct 7, 12:34 am)
Low34 °F (Oct 19, 5:53 am)29% (Oct 11, 4:53 pm)29.22 "Hg (Oct 17, 9:14 am)
Average49 °F86%30.03 "Hg
* Reported Oct 6 9:53 pm — Oct 21 9:53 pm, Cooperstown. Weather by CustomWeather, © 2019

Note: Actual official high and low records may vary slightly from our data, if they occured in-between our weather recording intervals... More about our weather records

Advertising

Cooperstown Weather History for the Previous 24 Hours

Scroll right to see more
 ConditionsComfort  
Time TempWeatherWind HumidityBarometerVisibility
9:53 pm
Mon, Oct 21
52 °FClear.9 mph86%30.06 "Hg10 mi
8:53 pm51 °FClear.8 mph86%30.07 "Hg10 mi
7:53 pm52 °FClear.7 mph83%30.09 "Hg10 mi
6:53 pm53 °FClear.3 mph74%30.08 "Hg10 mi
5:53 pm59 °FSunny.9 mph62%30.07 "Hg10 mi
4:53 pm63 °FSunny.10 mph54%30.09 "Hg10 mi
3:53 pm63 °FSunny.10 mph56%30.09 "Hg10 mi
2:53 pm63 °FSunny.14 mph56%30.08 "Hg10 mi
1:53 pm62 °FSunny.8 mph65%30.09 "Hg10 mi
12:53 pm56 °FSunny.6 mph77%30.13 "Hg10 mi
12:12 pm52 °FPassing clouds.6 mph86%30.13 "Hg10 mi
11:53 am48 °FPartly sunny.6 mph96%30.14 "Hg10 mi
11:37 am48 °FPartly sunny.7 mph96%30.14 "Hg10 mi
10:53 am47 °FPassing clouds.8 mph97%30.15 "Hg10 mi
10:21 am46 °FPassing clouds.6 mph93%30.15 "Hg10 mi
9:53 am45 °FSunny.6 mph93%30.16 "Hg10 mi
8:53 am41 °FPassing clouds.5 mph100%30.15 "Hg10 mi
7:53 am38 °FLow clouds.3 mph100%30.14 "Hg10 mi
7:37 am37 °FFog.5 mph100%30.11 "Hg3 mi
6:53 am38 °FPassing clouds.5 mph100%30.12 "Hg10 mi
6:37 am39 °FFog.6 mph100%30.12 "Hg1 mi
6:20 am40 °FFog.5 mph100%30.11 "Hg1 mi
6:12 am40 °FFog.6 mph100%30.11 "Hg1 mi
5:41 am41 °FFog.6 mph100%30.11 "Hg1 mi
4:53 am39 °FFog.7 mph100%30.09 "Hg2 mi
4:20 am41 °FLow clouds.7 mph100%30.08 "Hg8 mi
3:55 am41 °FFog.7 mph100%30.08 "Hg2 mi
3:20 am40 °FPassing clouds.5 mph100%30.08 "Hg8 mi
3:11 am41 °FFog.7 mph100%30.08 "Hg6 mi
1:53 am41 °FFog.5 mph100%30.07 "Hg5 mi
1:15 am41 °FFog.5 mph100%30.06 "Hg3 mi
1:02 am42 °FFog.3 mph100%30.06 "Hg1 mi
11:53 pm
Sun, Oct 20
42 °FFog.6 mph100%30.04 "Hg6 mi
11:33 pm42 °FFog.6 mph100%30.04 "Hg3 mi
Weather by CustomWeather, © 2019

See weather overview